| time (UTC) | temp F | wind direction | speed MPH | gust MPH | rain 1hr in | rain 24hr in | rain mn in | humidity % | barometer mb |
| 20260831134512 | 70 | 104 | 0.0 | 6.0 | 0.00 | 0.02 | 0.02 | 87 | 1009.3 |
| 20260831133012 | 70 | 104 | 0.0 | 2.0 | 0.00 | 0.02 | 0.02 | 88 | 1009.6 |
| 20260831131511 | 70 | 105 | 0.0 | 4.0 | 0.01 | 0.02 | 0.02 | 88 | 1009.3 |
| 20260831130010 | 69 | 146 | 3.0 | 9.0 | 0.02 | 0.02 | 0.02 | 88 | 1009.4 |
| 20260831124521 | 69 | 137 | 2.0 | 12.0 | 0.02 | 0.02 | 0.02 | 88 | 1009.8 |
| 20260831123006 | 70 | 136 | 3.0 | 9.0 | 0.02 | 0.02 | 0.02 | 87 | 1009.9 |
| 20260831121503 | 71 | 134 | 5.0 | 12.0 | 0.01 | 0.01 | 0.01 | 84 | 1009.9 |
| 20260831120059 | 72 | 147 | 3.0 | 9.0 | 0.00 | 0.00 | 0.00 | 80 | 1009.7 |
| 20260831114555 | 73 | 141 | 5.0 | 16.0 | 0.00 | 0.00 | 0.00 | 78 | 1009.0 |
| 20260831113051 | 76 | 128 | 8.0 | 18.0 | 0.00 | 0.00 | 0.00 | 71 | 1008.7 |
| 20260831111547 | 81 | 134 | 10.0 | 18.0 | 0.00 | 0.00 | 0.00 | 55 | 1008.3 |
| 20260831110043 | 81 | 126 | 0.0 | 3.0 | 0.00 | 0.00 | 0.00 | 54 | 1007.5 |
| 20260831104542 | 81 | 124 | 0.0 | 1.0 | 0.00 | 0.00 | 0.00 | 54 | 1006.9 |
| 20260831103045 | 81 | 145 | 0.0 | 2.0 | 0.00 | 0.00 | 0.00 | 53 | 1006.7 |
| 20260831101541 | 81 | 98 | 1.0 | 4.0 | 0.00 | 0.00 | 0.00 | 53 | 1006.6 |
| 20260831100059 | 81 | 102 | 5.0 | 9.0 | 0.00 | 0.00 | 0.00 | 53 | 1006.4 |
| 20260831094538 | 81 | 110 | 1.0 | 5.0 | 0.00 | 0.00 | 0.00 | 56 | 1006.3 |
| 20260831093045 | 81 | 113 | 0.0 | 4.0 | 0.00 | 0.00 | 0.00 | 56 | 1006.5 |
| 20260831091538 | 81 | 91 | 0.0 | 0.0 | 0.00 | 0.00 | 0.00 | 58 | 1006.6 |
| 20260831090035 | 81 | 91 | 0.0 | 0.0 | 0.00 | 0.00 | 0.00 | 57 | 1006.5 |
| 20260831084540 | 81 | 91 | 0.0 | 0.0 | 0.00 | 0.00 | 0.00 | 55 | 1006.6 |
| 20260831083033 | 81 | 179 | 0.0 | 0.0 | 0.00 | 0.00 | 0.00 | 57 | 1006.7 |
| 20260831081536 | 81 | 102 | 0.0 | 0.0 | 0.00 | 0.00 | 0.00 | 56 | 1006.8 |
| 20260831080028 | 82 | 102 | 0.0 | 0.0 | 0.00 | 0.00 | 0.00 | 55 | 1006.9 |
| 20260831074528 | 83 | 102 | 0.0 | 0.0 | 0.00 | 0.00 | 0.00 | 54 | 1006.9 |
| 20260831073023 | 83 | 103 | 0.0 | 0.0 | 0.00 | 0.00 | 0.00 | 52 | 1006.9 |
| 20260831071520 | 84 | 103 | 0.0 | 0.0 | 0.00 | 0.00 | 0.00 | 51 | 1007.0 |
| 20260831070016 | 84 | 103 | 0.0 | 0.0 | 0.00 | 0.00 | 0.00 | 50 | 1007.1 |
| 20260831064516 | 85 | 122 | 0.0 | 0.0 | 0.00 | 0.00 | 0.00 | 50 | 1007.1 |
| 20260831063015 | 85 | 124 | 0.0 | 0.0 | 0.00 | 0.00 | 0.00 | 48 | 1007.1 |
| 20260831061515 | 86 | 126 | 0.0 | 0.0 | 0.00 | 0.00 | 0.00 | 48 | 1007.3 |
| 20260831060014 | 85 | 134 | 0.0 | 0.0 | 0.00 | 0.00 | 0.00 | 48 | 1007.3 |
| 20260831054514 | 85 | 122 | 0.0 | 0.0 | 0.00 | 0.00 | 0.00 | 49 | 1007.1 |
| 20260831053036 | 86 | 122 | 0.0 | 0.0 | 0.00 | 0.00 | 0.00 | 46 | 1007.1 |
| 20260831051513 | 87 | 125 | 0.0 | 1.0 | 0.00 | 0.00 | 0.00 | 46 | 1007.0 |
| 20260831050012 | 87 | 127 | 1.0 | 4.0 | 0.00 | 0.00 | 0.00 | 45 | 1006.8 |
| 20260831044514 | 87 | 129 | 1.0 | 6.0 | 0.00 | 0.00 | 0.00 | 45 | 1006.8 |
| 20260831043012 | 87 | 143 | 2.0 | 7.0 | 0.00 | 0.00 | 0.00 | 44 | 1006.9 |
| 20260831041511 | 88 | 138 | 3.0 | 8.0 | 0.00 | 0.00 | 0.00 | 44 | 1006.7 |
| 20260831040010 | 88 | 139 | 3.0 | 8.0 | 0.00 | 0.00 | 0.00 | 43 | 1006.5 |
| 20260831034509 | 88 | 134 | 4.0 | 12.0 | 0.00 | 0.00 | 0.00 | 43 | 1006.3 |
| 20260831033024 | 89 | 140 | 3.0 | 11.0 | 0.00 | 0.00 | 0.00 | 42 | 1006.1 |
| 20260831031509 | 90 | 135 | 5.0 | 10.0 | 0.00 | 0.00 | 0.00 | 41 | 1005.7 |
| 20260831030008 | 92 | 148 | 7.0 | 12.0 | 0.00 | 0.00 | 0.00 | 38 | 1005.2 |
| 20260831024507 | 93 | 140 | 3.0 | 7.0 | 0.00 | 0.00 | 0.00 | 37 | 1004.8 |
| 20260831023006 | 93 | 132 | 2.0 | 7.0 | 0.00 | 0.00 | 0.00 | 36 | 1004.4 |
| 20260831021509 | 94 | 134 | 3.0 | 7.0 | 0.00 | 0.00 | 0.00 | 35 | 1004.1 |
| 20260831020007 | 94 | 140 | 3.0 | 9.0 | 0.00 | 0.00 | 0.00 | 34 | 1004.1 |
| 20260831014505 | 94 | 137 | 3.0 | 6.0 | 0.00 | 0.00 | 0.00 | 34 | 1004.0 |
| 20260831013005 | 94 | 134 | 2.0 | 4.0 | 0.00 | 0.00 | 0.00 | 34 | 1003.9 |
| 20260831011504 | 95 | 123 | 1.0 | 7.0 | 0.00 | 0.00 | 0.00 | 34 | 1003.8 |
| 20260831010004 | 96 | 139 | 3.0 | 8.0 | 0.00 | 0.00 | 0.00 | 33 | 1003.7 |
| 20260831004503 | 97 | 132 | 2.0 | 5.0 | 0.00 | 0.00 | 0.00 | 33 | 1003.7 |
| 20260831003002 | 99 | 129 | 2.0 | 6.0 | 0.00 | 0.00 | 0.00 | 31 | 1003.8 |
| 20260831001601 | 100 | 147 | 2.0 | 5.0 | 0.00 | 0.00 | 0.00 | 30 | 1003.9 |
| 20260831000100 | 100 | 135 | 2.0 | 9.0 | 0.00 | 0.00 | 0.00 | 31 | 1003.8 |
| 20260830234611 | 99 | 141 | 3.0 | 7.0 | 0.00 | 0.00 | 0.00 | 31 | 1003.8 |
| 20260830233059 | 99 | 138 | 2.0 | 6.0 | 0.00 | 0.00 | 0.00 | 30 | 1003.8 |
| 20260830231556 | 101 | 135 | 2.0 | 6.0 | 0.00 | 0.00 | 0.00 | 31 | 1004.1 |
| 20260830230053 | 100 | 129 | 2.0 | 6.0 | 0.00 | 0.00 | 0.00 | 31 | 1004.3 |
| 20260830224603 | 100 | 131 | 3.0 | 8.0 | 0.00 | 0.00 | 0.00 | 31 | 1004.5 |
| 20260830223053 | 100 | 139 | 3.0 | 8.0 | 0.00 | 0.00 | 0.00 | 32 | 1004.9 |
| 20260830221548 | 101 | 127 | 2.0 | 9.0 | 0.00 | 0.00 | 0.00 | 30 | 1005.2 |
| 20260830220047 | 101 | 139 | 2.0 | 7.0 | 0.00 | 0.00 | 0.00 | 31 | 1005.3 |
| 20260830214542 | 101 | 126 | 2.0 | 8.0 | 0.00 | 0.00 | 0.00 | 30 | 1005.7 |
| 20260830213046 | 99 | 133 | 3.0 | 6.0 | 0.00 | 0.00 | 0.00 | 32 | 1005.9 |
| 20260830211551 | 99 | 140 | 1.0 | 5.0 | 0.00 | 0.00 | 0.00 | 31 | 1006.1 |
| 20260830210049 | 99 | 133 | 3.0 | 8.0 | 0.00 | 0.00 | 0.00 | 30 | 1006.4 |
| 20260830204529 | 98 | 154 | 2.0 | 4.0 | 0.00 | 0.00 | 0.00 | 30 | 1006.7 |
| 20260830203041 | 99 | 125 | 3.0 | 7.0 | 0.00 | 0.00 | 0.00 | 30 | 1007.0 |
| 20260830201528 | 99 | 120 | 2.0 | 6.0 | 0.00 | 0.00 | 0.00 | 30 | 1007.1 |
| 20260830200025 | 98 | 138 | 3.0 | 8.0 | 0.00 | 0.00 | 0.00 | 33 | 1007.4 |
| 20260830194525 | 98 | 144 | 0.0 | 7.0 | 0.00 | 0.00 | 0.00 | 34 | 1007.6 |
| 20260830193024 | 97 | 105 | 1.0 | 9.0 | 0.00 | 0.00 | 0.00 | 34 | 1007.9 |
| 20260830191527 | 96 | 179 | 0.0 | 5.0 | 0.00 | 0.00 | 0.00 | 34 | 1008.2 |
| 20260830190020 | 96 | 111 | 4.0 | 9.0 | 0.00 | 0.00 | 0.00 | 35 | 1008.4 |
| 20260830184519 | 97 | 103 | 3.0 | 8.0 | 0.00 | 0.00 | 0.00 | 33 | 1008.5 |
| 20260830183016 | 96 | 99 | 1.0 | 6.0 | 0.00 | 0.00 | 0.00 | 35 | 1008.7 |
| 20260830181514 | 95 | 105 | 4.0 | 7.0 | 0.00 | 0.00 | 0.00 | 38 | 1008.9 |
| 20260830180017 | 93 | 98 | 3.0 | 9.0 | 0.00 | 0.00 | 0.00 | 40 | 1009.2 |
| 20260830174512 | 92 | 118 | 1.0 | 7.0 | 0.00 | 0.00 | 0.00 | 42 | 1009.2 |
| 20260830173007 | 90 | 115 | 1.0 | 7.0 | 0.00 | 0.00 | 0.00 | 45 | 1009.4 |
| 20260830171506 | 91 | 110 | 2.0 | 6.0 | 0.00 | 0.00 | 0.00 | 43 | 1009.3 |
| 20260830170010 | 90 | 120 | 1.0 | 10.0 | 0.00 | 0.00 | 0.00 | 44 | 1009.4 |
| 20260830164602 | 87 | 100 | 3.0 | 8.0 | 0.00 | 0.00 | 0.00 | 48 | 1009.3 |
| 20260830163100 | 87 | 108 | 2.0 | 7.0 | 0.00 | 0.00 | 0.00 | 47 | 1009.4 |
| 20260830161616 | 88 | 101 | 4.0 | 7.0 | 0.00 | 0.00 | 0.00 | 46 | 1009.5 |
| 20260830160055 | 87 | 105 | 2.0 | 7.0 | 0.00 | 0.00 | 0.00 | 47 | 1009.6 |
| 20260830154552 | 85 | 90 | 1.0 | 8.0 | 0.00 | 0.00 | 0.00 | 50 | 1009.7 |
| 20260830153058 | 86 | 104 | 3.0 | 7.0 | 0.00 | 0.00 | 0.00 | 50 | 1009.6 |
| 20260830151553 | 85 | 108 | 2.0 | 6.0 | 0.00 | 0.00 | 0.00 | 52 | 1009.4 |
| 20260830150048 | 82 | 101 | 0.0 | 0.0 | 0.00 | 0.00 | 0.00 | 59 | 1009.6 |
| 20260830144546 | 81 | 103 | 0.0 | 0.0 | 0.00 | 0.00 | 0.00 | 58 | 1009.5 |
| 20260830143100 | 81 | 100 | 0.0 | 0.0 | 0.00 | 0.00 | 0.00 | 60 | 1009.6 |
| 20260830141546 | 80 | 100 | 0.0 | 0.0 | 0.00 | 0.00 | 0.00 | 61 | 1009.6 |
| 20260830140046 | 80 | 100 | 0.0 | 0.0 | 0.00 | 0.00 | 0.00 | 57 | 1009.7 |